Terminal Aerodrome Forecast
Issued by NWS Atlanta, GA

Home | Current Version | Previous Version | Text Only | Print | Product List | Glossary On
Versions: 1 2 3 4 5 6 7 8 9 10 11 12 13 14 15 16 17 18 19 20 21 22 23 24 25 26 27 28 29 30 31 32 33 34 35 36 37 38 39 40 41 42
000
FTUS42 KFFC 290730 AAA
TAFATL
TAF AMD
KATL 290730Z 2908/3012 16003KT P6SM BKN200
     FM291500 17007KT P6SM BKN200
     FM291800 19010KT P6SM BKN080
     FM292300 20009KT P6SM SCT025 BKN080
     FM300100 23006KT P6SM BKN025 OVC080
     FM300300 26006KT P6SM BKN012 PROB30 3003/3008 -RA BKN012=

USA.gov is the U.S. government's official web portal to all federal, state and local government web resources and services.